This is the latest recevied weather packets stored in our database for station/object KN1OBI-13. If no packets are shown the sender has not sent any weather packets the latest 10 day(s).
| Time | Temp. | Humidity | Pressure | Rain* | Wind** | Luminosity | Snow |
|---|---|---|---|---|---|---|---|
| 1787862990 | 25° C | 64% | 996.4 hPa | 0 mm | - | - | - |
| 1787862390 | 25.56° C | 66% | 996.1 hPa | 0 mm | - | - | - |
| 1787861790 | 25.56° C | 67% | 996.2 hPa | 0 mm | - | - | - |
| 1787861190 | 26.11° C | 69% | 996.3 hPa | 0 mm | - | - | - |
| 1787860590 | 25.56° C | 67% | 996.6 hPa | 0 mm | - | - | - |
| 1787859990 | 25° C | 68% | 996.6 hPa | 0 mm | - | - | - |
| 1787859390 | 25° C | 69% | 996.7 hPa | 0 mm | - | - | - |
| 1787858790 | 25.56° C | 66% | 996.6 hPa | 0 mm | - | - | - |
| 1787858190 | 26.11° C | 65% | 996.5 hPa | 0 mm | - | - | - |
| 1787857590 | 26.11° C | 67% | 996.6 hPa | 0 mm | - | - | - |
| 1787856990 | 26.11° C | 69% | 996.5 hPa | 0 mm | - | - | - |
| 1787856390 | 26.11° C | 70% | 996.6 hPa | 0 mm | - | - | - |
| 1787855790 | 25.56° C | 72% | 996.7 hPa | 0 mm | - | - | - |
| 1787855193 | 26.11° C | 71% | 996.6 hPa | 0 mm | - | - | - |
| 1787854590 | 26.11° C | 68% | 996.6 hPa | 0 mm | - | - | - |
| 1787853990 | 26.67° C | 67% | 996.6 hPa | 0 mm | - | - | - |
| 1787853390 | 25.56° C | 71% | 996.6 hPa | 0 mm | - | - | - |
| 1787852790 | 25° C | 72% | 996.6 hPa | 0 mm | - | - | - |
| 1787852190 | 25° C | 72% | 996.8 hPa | 0 mm | - | - | - |
| 1787851590 | 25° C | 72% | 996.8 hPa | 0 mm | - | - | - |
| 1787850995 | 25° C | 73% | 996.7 hPa | 0 mm | - | - | - |
| 1787850390 | 25° C | 74% | 996.7 hPa | 0 mm | - | - | - |
| 1787849790 | 25.56° C | 73% | 996.8 hPa | 0 mm | - | - | - |
| 1787849190 | 25.56° C | 72% | 996.8 hPa | 0 mm | - | - | - |
| 1787848590 | 25.56° C | 71% | 997.2 hPa | 0 mm | - | - | - |
* Rain latest hour (hover to see other rain measurements)
** Current wind speed in m/s (hover to see current wind gust speed)